TimeEDT,TemperatureF,Dew PointF,Humidity,Sea Level PressureIn,VisibilityMPH,Wind Direction,Wind SpeedMPH,Gust SpeedMPH,PrecipitationIn,Events,Conditions,WindDirDegrees,DateUTC
12:08 AM,44.6,42.8,93,29.77,9.0,West,5.8,-,0.00,Rain,Light Rain,280,2013-11-02 04:08:00
12:27 AM,44.6,44.6,100,29.77,7.0,NW,3.5,-,0.00,,Overcast,310,2013-11-02 04:27:00
12:43 AM,44.6,42.8,93,29.77,9.0,West,6.9,-,0.00,,Overcast,280,2013-11-02 04:43:00
12:54 AM,45.0,43.0,93,29.77,10.0,West,6.9,-,0.00,,Overcast,280,2013-11-02 04:54:00
1:54 AM,45.0,43.0,93,29.77,9.0,West,5.8,-,N/A,,Overcast,260,2013-11-02 05:54:00
2:54 AM,44.1,42.1,93,29.78,10.0,West,5.8,-,N/A,,Mostly Cloudy,270,2013-11-02 06:54:00
3:54 AM,41.0,39.9,96,29.78,9.0,WSW,4.6,-,N/A,,Mostly Cloudy,250,2013-11-02 07:54:00
4:54 AM,41.0,39.9,96,29.79,7.0,WSW,3.5,-,N/A,,Mostly Cloudy,250,2013-11-02 08:54:00
5:54 AM,39.9,39.9,100,29.81,7.0,West,4.6,-,N/A,,Mostly Cloudy,270,2013-11-02 09:54:00
6:54 AM,39.9,39.0,97,29.82,7.0,West,3.5,-,N/A,,Overcast,270,2013-11-02 10:54:00
7:54 AM,39.0,39.0,100,29.83,5.0,Calm,Calm,-,N/A,,Clear,0,2013-11-02 11:54:00
8:54 AM,37.0,37.0,100,29.86,6.0,West,4.6,-,N/A,,Clear,260,2013-11-02 12:54:00
9:54 AM,41.0,39.9,96,29.88,6.0,West,6.9,-,N/A,,Clear,280,2013-11-02 13:54:00
10:54 AM,45.0,41.0,86,29.90,9.0,NW,8.1,-,N/A,,Clear,310,2013-11-02 14:54:00
11:54 AM,48.0,41.0,77,29.92,10.0,NW,8.1,-,N/A,,Partly Cloudy,310,2013-11-02 15:54:00
12:29 PM,48.2,41.0,76,29.93,10.0,NW,8.1,16.1,N/A,,Mostly Cloudy,310,2013-11-02 16:29:00
12:54 PM,48.0,39.0,71,29.94,10.0,NW,13.8,21.9,N/A,,Mostly Cloudy,310,2013-11-02 16:54:00
1:54 PM,48.0,36.0,63,29.95,10.0,WNW,11.5,21.9,N/A,,Mostly Cloudy,300,2013-11-02 17:54:00
2:54 PM,48.0,36.0,63,29.96,10.0,WNW,11.5,-,N/A,,Overcast,300,2013-11-02 18:54:00
3:54 PM,48.0,37.0,66,29.98,10.0,WNW,13.8,19.6,N/A,,Overcast,290,2013-11-02 19:54:00
4:54 PM,46.9,37.0,68,30.00,10.0,West,13.8,-,N/A,,Mostly Cloudy,280,2013-11-02 20:54:00
5:54 PM,45.0,37.9,76,30.03,10.0,WNW,10.4,-,N/A,,Scattered Clouds,290,2013-11-02 21:54:00
6:54 PM,44.1,37.9,79,30.05,10.0,WNW,9.2,-,N/A,,Overcast,290,2013-11-02 22:54:00
7:20 PM,44.6,37.4,76,30.05,10.0,West,6.9,-,N/A,,Overcast,280,2013-11-02 23:20:00
7:54 PM,43.0,39.0,86,30.08,8.0,WNW,6.9,-,0.00,Rain,Light Rain,300,2013-11-02 23:54:00
8:15 PM,42.8,39.2,87,30.08,10.0,WNW,3.5,-,0.01,Rain,Light Rain,290,2013-11-03 00:15:00
8:54 PM,43.0,41.0,93,30.10,10.0,Calm,Calm,-,0.01,,Overcast,0,2013-11-03 00:54:00
9:54 PM,42.1,39.9,92,30.12,10.0,WNW,3.5,-,N/A,,Overcast,290,2013-11-03 01:54:00
10:54 PM,41.0,39.9,96,30.14,10.0,West,3.5,-,N/A,,Overcast,270,2013-11-03 02:54:00
11:54 PM,39.9,39.9,100,30.15,9.0,Calm,Calm,-,N/A,,Mostly Cloudy,0,2013-11-03 03:54:00